Probability
0 0 0 0 0 0 0 0 0 1 3 6 11 15 17 19 19 17 19 24 28 31 34 35 33 28 23 22 24 25 23 23 25 25 23 20 18 15 11 10 11 12 12 12
0 0 0 0 0 0 0 1 1 2 4 6 11 14 15 15 15 16 19 24 27 30 33 35 33 27 21 19 21 23 22 20 21 21 20 19 16 11 8 9 10 11 11 11
0 0 0 0 1 1 1 2 3 4 6 8 10 12 11 10 12 15 20 24 27 30 33 34 31 26 21 18 17 18 17 16 16 17 17 17 14 9 7 7 8 9 9 9
0 0 0 0 1 2 3 4 6 7 8 9 10 10 10 11 13 17 23 30 31 31 33 33 29 26 22 19 16 15 13 13 14 14 15 16 13 10 9 8 7 7 7 7
0 0 0 0 1 1 2 5 7 8 8 9 9 11 12 15 17 21 28 33 34 32 32 30 27 25 22 19 16 15 13 12 12 12 14 15 12 10 9 8 7 6 6 6
0 0 0 0 0 0 1 5 7 7 7 9 11 14 16 17 18 23 28 31 30 30 29 27 25 23 21 18 15 14 13 12 12 12 13 13 11 9 8 7 7 6 5 5
0 0 0 0 0 2 5 7 7 7 10 14 16 17 18 18 19 24 27 26 25 26 27 25 23 22 21 18 15 14 11 11 12 12 11 10 10 9 7 7 6 6 5 4
0 1 2 2 2 5 9 9 7 7 13 19 20 17 17 20 23 26 26 24 24 25 27 26 25 22 20 18 17 14 10 9 10 10 8 8 8 9 8 7 5 5 5 5
2 3 4 5 4 5 6 5 4 8 14 18 19 19 19 22 27 28 26 23 23 24 27 29 27 23 19 17 17 15 12 11 10 7 7 8 8 9 8 5 4 4 5 5
4 4 5 4 3 3 2 2 3 6 10 13 16 20 22 24 27 28 25 23 23 24 27 29 27 24 21 18 16 15 15 14 11 7 5 7 10 10 8 4 2 2 3 4
4 5 4 3 2 2 3 5 5 6 8 11 15 20 23 25 27 27 24 23 23 23 25 26 25 25 24 20 17 15 15 14 10 6 5 6 8 9 7 4 2 1 1 1
5 5 4 2 2 2 3 6 7 8 10 12 15 20 23 25 27 26 23 21 20 19 21 23 23 24 24 22 18 14 14 12 7 5 5 4 4 6 5 3 2 0 0 0
4 3 2 2 2 1 2 4 6 8 10 11 14 18 22 24 25 24 22 20 18 16 17 19 19 20 20 19 17 15 15 13 8 5 5 4 3 4 4 2 1 1 0 0
2 2 1 2 3 2 2 2 3 6 8 9 11 15 20 23 23 21 20 19 17 15 14 13 14 14 16 16 17 17 15 12 7 5 4 4 4 4 3 3 3 2 1 0
2 3 4 5 5 4 4 3 2 4 7 9 11 13 16 20 20 17 16 16 17 16 13 10 9 11 13 14 14 14 12 7 4 3 4 3 3 3 3 3 3 3 2 1
1 2 4 5 6 5 5 4 4 5 7 8 9 11 12 15 16 14 13 14 15 16 14 12 10 10 11 11 11 10 7 3 1 2 2 2 2 2 2 2 2 2 2 2
2 2 3 4 5 5 5 5 5 6 6 7 7 8 10 13 14 12 10 11 12 15 16 15 13 13 13 12 10 8 5 2 1 1 1 1 1 1 1 2 1 1 1 2
3 3 3 4 5 5 5 5 5 6 6 6 7 7 10 12 13 11 9 9 10 13 16 15 14 14 15 14 11 7 4 3 2 1 0 0 0 0 0 1 1 0 0 1
2 2 2 3 4 4 4 4 5 5 6 6 6 6 9 11 11 10 9 8 9 12 14 14 12 13 15 13 10 6 4 3 2 1 0 0 0 0 0 0 0 0 0 0
0 0 2 3 3 3 3 3 4 4 4 4 4 5 7 9 9 9 9 9 9 9 11 12 12 12 12 9 5 4 3 2 1 0 0 0 0 0 0 0 0 0 0 0
1 1 2 3 3 3 3 3 3 3 3 3 3 3 5 6 8 8 9 9 9 8 8 10 11 10 7 5 2 1 1 1 1 1 1 1 1 0 0 0 0 0 0 0
3 3 4 4 3 3 3 3 3 3 3 3 3 3 4 5 6 6 6 7 7 5 6 7 7 5 3 1 1 1 1 2 2 2 2 2 1 0 0 0 0 0 0 0
7 7 7 5 4 3 3 3 3 3 3 3 3 3 3 4 4 3 3 3 2 2 2 3 2 1 0 1 1 2 3 3 2 1 1 1 0 0 0 0 0 0 0 0
9 10 9 6 4 3 3 3 3 3 3 3 3 3 3 3 3 1 0 0 0 0 0 0 0 0 0 1 2 3 3 3 1 0 0 1 0 0 0 0 0 0 0 0
9 10 11 9 6 4 3 3 3 3 3 3 3 3 3 3 3 1 0 0 0 0 0 0 0 0 0 1 2 3 4 3 1 0 0 1 1 0 0 0 0 0 0 0
8 9 11 10 7 5 4 3 3 3 3 3 3 3 3 3 2 1 0 0 0 0 0 0 0 0 0 1 2 4 5 3 1 1 1 2 1 0 0 0 0 0 0 0
8 8 9 9 7 5 4 3 3 3 3 3 3 3 3 3 2 1 0 0 0 0 0 0 0 0 0 1 2 5 6 4 2 2 1 2 1 0 0 0 0 0 0 0
Wind_Speed
7 7 8 8 9 8 7 8 7 4 2 2 2 4 2 3 4 3 3 4 4 5 5 4 4 4 3 3 3 3 3 3 2 1 1 1 0 0 0 1 1 0 0 1
8 8 11 11 9 9 9 7 5 2 2 3 3 3 2 2 3 3 3 3 4 5 5 4 3 3 3 3 2 2 2 2 2 1 1 1 1 0 1 1 1 1 1 0
9 10 12 10 7 7 4 5 4 2 2 3 3 3 3 3 2 2 3 3 3 3 3 3 3 3 2 2 2 1 1 2 2 1 1 1 0 1 0 1 1 1 1 0
9 9 11 4 1 1 2 3 3 3 4 4 3 3 3 3 2 2 3 3 3 3 3 3 3 3 3 2 1 1 1 1 1 1 0 1 1 0 0 0 1 1 1 1
7 9 6 4 1 2 2 1 3 3 3 3 3 3 4 5 4 3 4 4 3 2 3 3 3 3 3 2 2 1 1 1 1 1 0 0 0 0 0 1 1 1 1 1
8 9 7 2 3 3 2 2 2 2 2 1 0 0 2 3 3 4 4 4 3 3 4 3 3 3 3 2 1 1 1 1 1 1 0 1 1 1 1 1 2 1 1 1
9 8 3 4 4 3 2 2 5 4 3 2 4 3 3 2 3 3 3 4 4 3 3 3 3 3 2 2 1 1 1 2 2 1 0 0 0 1 1 2 2 1 1 1
7 8 2 3 2 3 4 5 5 5 5 5 5 5 4 2 2 3 3 3 3 3 3 3 3 2 2 2 1 1 2 2 3 2 2 1 0 1 2 2 2 2 2 2
1 1 4 5 6 4 3 4 4 5 5 4 3 3 3 2 2 3 2 2 2 3 3 3 2 2 2 1 1 1 2 2 2 2 2 1 1 2 2 2 2 2 1 1
1 3 4 4 4 2 2 2 2 3 3 2 1 2 3 2 2 2 1 2 2 2 2 2 2 2 2 1 1 1 1 1 1 1 1 1 1 1 1 1 2 1 1 1
3 1 1 1 2 2 2 2 2 2 1 1 1 2 2 2 2 1 1 1 1 1 1 1 2 2 2 2 1 0 1 1 2 2 1 0 1 1 1 0 1 1 1 1
1 1 2 1 2 2 1 2 2 1 1 2 2 2 1 1 1 1 1 1 1 0 1 1 1 1 1 1 1 1 2 2 2 2 1 1 1 0 1 1 3 3 1 0
2 2 2 2 2 2 2 2 1 1 1 1 0 1 1 1 1 1 1 1 1 1 0 1 1 1 0 0 1 2 2 2 3 3 2 2 1 1 0 1 1 2 2 2
1 1 1 1 2 2 3 2 1 1 1 1 1 0 1 1 1 1 1 1 1 1 1 1 1 1 1 1 1 2 3 3 3 3 2 2 2 2 2 2 2 2 3 5
1 1 1 1 1 2 2 2 2 2 2 2 1 2 1 1 1 1 1 1 1 2 2 2 2 2 1 1 2 3 3 3 3 3 3 3 3 3 2 2 1 1 1 2
3 2 1 1 2 3 2 2 2 2 2 2 1 1 2 1 1 1 1 1 2 3 2 2 2 2 1 2 3 3 3 4 4 4 4 3 3 3 2 1 1 1 1 1
3 2 2 2 2 2 3 2 3 3 2 2 1 1 1 1 1 1 2 2 2 2 2 2 2 2 3 3 4 4 4 3 4 4 4 3 3 2 2 2 2 2 1 2
3 4 3 3 3 3 3 3 3 2 2 2 1 1 1 1 2 2 3 3 2 2 2 3 2 3 3 3 3 4 4 3 3 4 3 2 2 2 2 3 3 3 1 2
3 3 3 3 3 3 3 2 2 2 2 1 1 1 1 2 2 2 2 3 3 3 2 3 2 4 3 2 3 4 5 4 3 3 3 3 3 3 2 2 2 2 2 1
1 2 2 2 2 2 2 2 2 2 1 1 1 1 1 2 2 3 3 3 3 2 2 2 4 4 4 3 4 5 6 5 4 3 3 3 3 2 2 2 3 3 2 1
1 1 1 1 1 1 1 1 1 1 1 1 2 2 2 3 3 3 3 4 2 2 3 4 4 3 3 3 5 6 6 5 4 3 3 3 2 2 2 2 3 2 2 2
1 1 1 1 1 1 1 1 2 2 2 2 3 3 3 3 4 4 3 3 3 2 3 3 3 2 3 4 5 6 6 5 4 3 3 2 2 2 2 3 3 2 2 2
1 1 1 1 1 1 1 2 2 2 2 2 3 3 3 3 3 4 3 2 2 2 3 3 2 1 3 5 6 6 5 5 4 4 3 2 2 3 3 3 2 2 2 2
1 1 1 1 1 2 2 3 3 2 3 3 3 3 3 3 3 3 3 1 1 2 3 2 3 4 5 5 5 5 5 4 4 3 3 3 3 3 2 2 2 2 3 3
2 2 2 2 2 3 3 3 3 3 4 3 3 3 3 3 3 2 2 2 2 3 3 3 5 6 5 5 5 5 4 3 4 4 3 3 3 3 2 2 3 3 2 2
2 3 2 2 3 3 3 3 3 3 3 3 3 3 3 2 2 2 2 3 4 4 4 3 3 4 4 4 4 4 3 2 3 3 3 2 3 2 1 2 3 2 2 2
3 3 2 3 4 4 4 3 3 3 3 3 3 3 3 2 2 2 2 3 3 3 3 3 3 3 3 3 3 3 2 2 3 3 2 2 2 2 2 2 2 2 2 1
Wind_Direction
269 264 269 272 268 269 273 275 280 280 182 165 86 93 87 100 101 86 86 97 103 107 107 106 106 105 100 85 90 102 115 118 121 144 151 157 173 8 320 274 269 294 294 325
274 266 263 261 258 256 257 269 271 296 46 82 89 102 113 79 85 96 93 94 101 106 115 120 114 107 97 86 74 89 107 121 118 127 126 131 155 167 270 309 321 307 284 334
267 271 274 262 269 273 280 289 287 322 69 99 95 89 87 68 56 75 100 90 104 113 118 129 132 121 115 106 92 92 119 121 130 135 141 153 157 106 30 292 295 291 293 336
268 263 263 268 341 279 289 331 7 52 74 82 97 92 89 89 80 65 75 86 98 120 130 140 130 131 139 135 129 120 108 118 120 145 153 151 149 104 321 267 276 277 284 291
270 262 256 258 264 276 257 311 15 38 59 89 125 120 99 80 68 72 77 81 85 114 126 133 143 142 144 139 143 145 76 107 131 161 186 255 271 293 274 267 274 284 309 306
261 272 271 344 4 2 291 205 39 32 22 359 196 204 89 76 72 73 91 103 112 120 122 128 138 139 140 133 122 74 30 12 37 71 26 11 345 314 289 267 258 254 254 232
255 262 281 16 356 350 275 42 20 15 22 26 54 55 82 74 77 90 97 108 116 121 119 119 122 127 128 117 94 65 50 18 18 40 333 315 358 300 279 269 261 237 229 228
257 260 256 25 27 33 47 35 20 18 34 58 79 90 93 78 73 91 93 107 123 120 109 109 117 131 132 112 61 39 38 27 23 10 337 41 10 285 264 256 252 241 220 213
341 44 69 56 66 59 52 38 24 28 32 33 66 78 84 95 87 91 104 100 107 120 118 118 127 127 117 106 75 49 42 35 19 355 353 355 274 265 261 248 244 244 222 204
243 132 117 86 82 63 37 31 15 38 42 5 19 76 71 83 87 91 104 108 104 118 121 127 138 133 123 125 119 80 50 36 339 304 291 299 287 283 282 302 305 305 301 274
234 231 102 99 71 46 17 357 15 33 15 333 26 83 78 82 96 96 64 67 95 109 129 135 135 142 148 140 133 237 285 287 275 271 267 272 277 290 289 67 220 275 323 333
287 22 301 324 356 346 332 330 354 344 342 12 54 60 63 91 95 82 75 73 83 135 143 132 146 157 146 151 168 219 249 261 269 272 262 242 241 165 75 153 150 143 128 109
338 315 325 357 350 330 296 280 293 321 339 320 290 137 175 146 151 185 195 211 231 234 225 169 178 194 169 109 223 234 260 266 274 280 272 259 267 273 261 180 173 183 193 189
13 326 297 324 314 313 304 301 316 302 299 305 320 177 164 163 175 202 226 233 237 243 235 213 227 231 221 243 248 243 255 255 262 269 273 273 266 260 254 237 216 207 208 208
311 280 286 301 292 295 294 296 286 270 277 293 313 311 258 218 220 240 235 237 248 254 247 238 252 251 228 244 263 264 259 256 256 266 261 259 264 260 259 265 274 246 167 181
267 271 267 264 287 293 289 290 291 291 285 284 299 310 293 265 221 225 245 252 251 255 254 254 265 267 243 251 258 254 253 256 256 265 265 262 255 260 262 245 255 269 235 195
247 255 263 265 272 290 297 292 284 284 288 288 282 255 259 261 241 237 244 250 253 259 269 265 265 262 251 251 264 264 256 236 234 257 262 269 272 279 285 272 259 255 231 186
245 252 258 261 264 276 283 283 286 293 292 294 300 274 269 272 267 271 274 267 260 263 271 269 262 251 253 255 267 275 269 248 230 248 260 268 265 266 274 283 276 276 247 186
238 248 252 254 254 257 269 280 289 296 309 301 272 269 272 273 278 286 280 276 269 268 271 278 263 252 249 251 267 262 266 266 252 248 256 249 250 260 265 268 285 298 300 276
242 256 251 245 247 251 264 268 276 278 273 273 273 285 279 279 281 284 281 268 264 278 284 277 254 250 250 232 246 261 264 266 267 255 249 252 257 260 267 274 278 284 294 293
276 272 292 285 264 257 260 265 276 283 284 279 271 269 274 279 277 276 273 272 265 271 264 252 254 258 264 264 243 258 264 265 263 259 252 255 261 274 280 280 277 279 291 288
294 276 282 285 267 286 296 267 250 252 253 264 268 266 270 273 270 270 268 276 269 258 265 260 256 271 288 281 262 259 263 268 265 259 257 256 256 261 266 270 267 266 268 266
282 292 302 303 271 273 293 287 271 271 270 270 274 274 271 276 275 273 272 263 259 239 267 278 247 224 257 264 271 265 261 263 264 261 252 236 244 252 260 262 262 255 255 260
286 288 279 274 280 268 266 272 280 286 281 270 259 257 261 262 258 261 282 288 221 232 264 253 209 221 239 256 264 264 265 267 266 267 265 256 253 251 253 262 266 264 256 253
270 269 263 247 256 256 250 261 265 262 263 265 261 257 259 262 269 280 287 263 213 229 258 230 218 225 241 265 270 270 267 273 283 287 272 261 256 248 250 248 254 258 262 267
265 256 254 254 260 265 259 256 257 257 267 274 275 273 275 267 261 260 262 268 260 246 260 254 222 220 245 262 269 271 270 261 260 264 279 280 280 290 291 282 277 274 276 282
249 245 242 244 247 249 251 251 251 248 252 265 282 291 289 291 286 277 274 275 276 265 261 261 258 255 258 267 273 276 272 268 276 283 283 279 276 275 270 263 273 279 278 286